Location: Cossonay
(46.5833°N, 6.4167°E)
Time: 21:27:16
(UTC+00:00)

Cosmos 1400 Rocket - Pass Details

Date: 07 June 2020
Orbit: 522 x 568 km, 81.2° (Epoch: 04 July)

Event Time Altitude Azimuth Distance (km) Brightness Sun altitude
Rises 00:01:22 0° 358° (N) 2,780 7.9 -20.3°
Reaches altitude 10° 00:03:47 10° 9° (N) 1,878 6.7 -20.3°
Maximum altitude 00:07:27 29° 71° (ENE) 1,050 4.5 -20.2°
Enters shadow 00:09:30 19° 117° (ESE) 1,362 4.6 -20.2°
